{"data":{"norad_id":68282,"epoch":"2026-09-20T01:07:34.896288Z","epoch_age_seconds":90985,"freshness":"FRESH","line1":"1 68282U 26055W   26263.04693167  .00018031  00000+0  54353-3 0  9994","line2":"2 68282  53.1579 131.8108 0001800  60.4722 299.6459 15.34399244 29751","mean_motion":15.34399244,"eccentricity":0.00018,"inclination_deg":53.1579,"raan_deg":131.8108,"arg_perigee_deg":60.4722,"mean_anomaly_deg":299.6459,"bstar":0.00054353,"rev_number":2975,"period_min":93.847804320216,"perigee_km":461.47413555165,"apogee_km":463.93683884704,"semimajor_km":6840.8424871993,"source":"CELESTRAK","updated_at":"2026-09-20T09:00:43.850407Z"}}